| time (UTC) | temp F | wind direction | speed knots | gust knots | rain 1hr in | rain 24hr in | rain mn in | humidity % | barometer mb |
| 20260503181543 | 77 | 231 | 1.7 | 5.2 | 0.00 | 0.00 | 0.00 | 50 | 1010.9 |
| 20260503180042 | 76 | 291 | 1.7 | 4.3 | 0.00 | 0.00 | 0.00 | 50 | 1011.0 |
| 20260503174555 | 75 | 345 | 0.9 | 3.5 | 0.00 | 0.00 | 0.00 | 53 | 1011.2 |
| 20260503173051 | 74 | 329 | 0.0 | 4.3 | 0.00 | 0.00 | 0.00 | 56 | 1011.2 |
| 20260503171542 | 73 | 5 | 0.0 | 3.5 | 0.00 | 0.00 | 0.00 | 58 | 1011.4 |
| 20260503081554 | 55 | 0 | 0.0 | 0.0 | 0.00 | 0.01 | 0.00 | 90 | 1012.2 |
| 20260503071604 | 57 | 0 | 0.0 | 0.9 | 0.00 | 0.01 | 0.00 | 87 | 1012.4 |
| 20260503054554 | 61 | 32 | 0.0 | 2.6 | 0.00 | 0.01 | 0.01 | 80 | 1012.4 |
| 20260503053044 | 62 | 0 | 0.0 | 3.5 | 0.00 | 0.01 | 0.01 | 78 | 1012.3 |
| 20260503051548 | 63 | 5 | 0.0 | 1.7 | 0.00 | 0.01 | 0.01 | 76 | 1012.0 |
| 20260503050043 | 63 | 352 | 0.9 | 5.2 | 0.00 | 0.01 | 0.01 | 76 | 1012.0 |
| 20260503044544 | 62 | 42 | 0.9 | 1.7 | 0.00 | 0.01 | 0.01 | 79 | 1012.1 |
| 20260503043046 | 62 | 0 | 0.0 | 0.9 | 0.00 | 0.01 | 0.01 | 78 | 1012.3 |
| 20260503041543 | 62 | 42 | 0.0 | 2.6 | 0.00 | 0.01 | 0.01 | 78 | 1012.1 |
| 20260503040044 | 62 | 0 | 0.0 | 0.9 | 0.00 | 0.01 | 0.01 | 77 | 1012.0 |
| 20260503034551 | 63 | 0 | 0.0 | 2.6 | 0.00 | 0.01 | 0.01 | 76 | 1012.1 |
| 20260503033055 | 63 | 52 | 1.7 | 3.5 | 0.00 | 0.01 | 0.01 | 75 | 1012.1 |
| 20260503031541 | 63 | 144 | 0.0 | 2.6 | 0.00 | 0.01 | 0.01 | 75 | 1012.0 |
| 20260503030050 | 63 | 0 | 0.0 | 2.6 | 0.00 | 0.01 | 0.01 | 74 | 1011.7 |
| 20260503024549 | 64 | 352 | 0.0 | 4.3 | 0.00 | 0.01 | 0.01 | 73 | 1012.0 |
| 20260503023050 | 64 | 196 | 2.6 | 7.0 | 0.00 | 0.01 | 0.01 | 73 | 1012.1 |
| 20260503021543 | 64 | 242 | 4.3 | 15.6 | 0.00 | 0.01 | 0.01 | 73 | 1012.1 |
| 20260503020050 | 66 | 173 | 7.0 | 14.8 | 0.00 | 0.01 | 0.01 | 69 | 1012.3 |
| 20260503014551 | 69 | 148 | 3.5 | 7.8 | 0.00 | 0.01 | 0.01 | 64 | 1011.4 |
| 20260503013045 | 71 | 0 | 0.0 | 0.9 | 0.00 | 0.01 | 0.01 | 58 | 1011.2 |
| 20260503011600 | 71 | 202 | 0.0 | 1.7 | 0.00 | 0.01 | 0.01 | 59 | 1011.2 |
| 20260503010047 | 71 | 0 | 0.9 | 2.6 | 0.00 | 0.01 | 0.01 | 58 | 1011.1 |
| 20260503004541 | 70 | 24 | 0.9 | 4.3 | 0.00 | 0.01 | 0.01 | 59 | 1011.0 |
| 20260503003043 | 71 | 0 | 0.0 | 6.1 | 0.00 | 0.01 | 0.01 | 57 | 1011.1 |
| 20260503001556 | 71 | 0 | 0.9 | 6.1 | 0.00 | 0.01 | 0.01 | 56 | 1011.0 |
| 20260503000056 | 71 | 253 | 0.0 | 3.5 | 0.00 | 0.01 | 0.01 | 56 | 1011.1 |
| 20260502234606 | 73 | 0 | 0.0 | 5.2 | 0.00 | 0.01 | 0.01 | 56 | 1011.2 |
| 20260502233050 | 71 | 321 | 1.7 | 7.8 | 0.00 | 0.01 | 0.01 | 56 | 1011.5 |
| 20260502231541 | 71 | 246 | 1.7 | 6.1 | 0.00 | 0.01 | 0.01 | 59 | 1011.6 |
| 20260502230055 | 71 | 58 | 0.9 | 7.0 | 0.00 | 0.01 | 0.01 | 58 | 1011.9 |
| 20260502224548 | 70 | 0 | 0.9 | 3.5 | 0.00 | 0.01 | 0.01 | 60 | 1011.9 |
| 20260502223057 | 69 | 236 | 0.0 | 2.6 | 0.00 | 0.01 | 0.01 | 60 | 1012.1 |
| 20260502221541 | 68 | 247 | 0.9 | 8.7 | 0.00 | 0.01 | 0.01 | 62 | 1012.3 |
| 20260502220042 | 67 | 94 | 0.9 | 6.1 | 0.00 | 0.01 | 0.01 | 63 | 1012.5 |
| 20260502214551 | 67 | 355 | 0.9 | 4.3 | 0.00 | 0.01 | 0.01 | 62 | 1012.8 |
| 20260502213047 | 64 | 198 | 3.5 | 6.1 | 0.00 | 0.01 | 0.01 | 66 | 1012.9 |
| 20260502211544 | 65 | 0 | 0.0 | 6.1 | 0.00 | 0.01 | 0.01 | 65 | 1013.2 |
| 20260502210044 | 63 | 196 | 1.7 | 8.7 | 0.00 | 0.01 | 0.01 | 67 | 1013.2 |
| 20260502204542 | 64 | 252 | 0.9 | 7.8 | 0.00 | 0.01 | 0.01 | 69 | 1013.8 |
| 20260502203113 | 62 | 165 | 2.6 | 6.1 | 0.00 | 0.01 | 0.01 | 70 | 1014.2 |
| 20260502201556 | 60 | 178 | 1.7 | 6.1 | 0.00 | 0.01 | 0.01 | 73 | 1014.4 |
| 20260502200046 | 59 | 195 | 3.5 | 6.1 | 0.00 | 0.01 | 0.01 | 73 | 1014.5 |
| 20260502194554 | 60 | 261 | 0.9 | 6.1 | 0.00 | 0.01 | 0.01 | 71 | 1014.6 |
| 20260502193056 | 61 | 0 | 0.9 | 4.3 | 0.00 | 0.01 | 0.01 | 72 | 1014.6 |
| 20260502191542 | 58 | 257 | 2.6 | 6.1 | 0.00 | 0.01 | 0.01 | 75 | 1014.9 |
| 20260502190046 | 56 | 250 | 1.7 | 5.2 | 0.00 | 0.01 | 0.01 | 78 | 1015.2 |
| 20260502184545 | 56 | 217 | 2.6 | 4.3 | 0.00 | 0.01 | 0.01 | 78 | 1015.3 |
| 20260502183044 | 55 | 313 | 1.7 | 7.0 | 0.00 | 0.01 | 0.01 | 80 | 1015.1 |